| time (UTC) | temp F | wind direction | speed MPH | gust MPH | rain 1hr in | rain 24hr in | rain mn in | humidity % | barometer mb |
| 20260504035609 | 49 | 236 | 0.0 | 1.0 | 0.00 | 0.00 | 0.00 | 63 | 1004.4 |
| 20260504032608 | 51 | 236 | 0.0 | 1.0 | 0.00 | 0.00 | 0.00 | 58 | 1005.0 |
| 20260504025609 | 54 | 236 | 0.0 | 1.0 | 0.00 | 0.00 | 0.00 | 51 | 1005.4 |
| 20260504022608 | 58 | 236 | 0.0 | 0.0 | 0.00 | 0.00 | 0.00 | 43 | 1005.8 |
| 20260504012607 | 65 | 244 | 1.0 | 7.0 | 0.00 | 0.00 | 0.00 | 30 | 1006.0 |
| 20260504005607 | 67 | 271 | 3.0 | 8.0 | 0.00 | 0.00 | 0.00 | 28 | 1006.0 |
| 20260504002604 | 69 | 236 | 2.0 | 8.0 | 0.00 | 0.00 | 0.00 | 26 | 1006.0 |
| 20260503225604 | 73 | 249 | 4.0 | 12.0 | 0.00 | 0.00 | 0.00 | 24 | 1006.8 |
| 20260503222605 | 73 | 342 | 4.0 | 13.0 | 0.00 | 0.00 | 0.00 | 24 | 1006.9 |
| 20260503215604 | 73 | 282 | 6.0 | 13.0 | 0.00 | 0.00 | 0.00 | 22 | 1007.2 |
| 20260503212602 | 74 | 340 | 4.0 | 11.0 | 0.00 | 0.00 | 0.00 | 22 | 1007.4 |
| 20260503205602 | 73 | 32 | 4.0 | 13.0 | 0.00 | 0.00 | 0.00 | 22 | 1007.6 |
| 20260503202602 | 72 | 298 | 4.0 | 10.0 | 0.00 | 0.00 | 0.00 | 24 | 1008.1 |
| 20260503195601 | 71 | 334 | 6.0 | 15.0 | 0.00 | 0.00 | 0.00 | 23 | 1008.4 |
| 20260503192602 | 70 | 347 | 5.0 | 17.0 | 0.00 | 0.00 | 0.00 | 23 | 1008.5 |
| 20260503185601 | 71 | 355 | 4.0 | 13.0 | 0.00 | 0.00 | 0.00 | 24 | 1009.1 |
| 20260503182600 | 70 | 38 | 6.0 | 18.0 | 0.00 | 0.00 | 0.00 | 25 | 1009.2 |
| 20260503175600 | 69 | 340 | 6.0 | 14.0 | 0.00 | 0.00 | 0.00 | 28 | 1009.5 |
| 20260503172559 | 68 | 313 | 6.0 | 13.0 | 0.00 | 0.00 | 0.00 | 26 | 1009.5 |
| 20260503072533 | 52 | 232 | 1.0 | 5.0 | 0.00 | 0.00 | 0.00 | 62 | 1007.3 |
| 20260503045531 | 58 | 230 | 2.0 | 6.0 | 0.00 | 0.00 | 0.00 | 47 | 1009.3 |
| 20260503042529 | 59 | 227 | 3.0 | 7.0 | 0.00 | 0.00 | 0.00 | 44 | 1009.4 |